Location: Edinburgh
(55.9500°N, 3.1600°W)
Time: 03:53:04
(UTC+01:00)

N. Korean satellite - Pass Details

Date: 09 October 2017
Orbit: 459 x 517 km, 97.2° (Epoch: 21 October)

Event Time Altitude Azimuth Distance (km) Brightness Sun altitude
Rises 20:06:44 0° 204° (SSW) 2,562 10.4 -14.8°
Reaches altitude 10° 20:09:17 10° 223° (SW) 1,674 9.7 -15.1°
Maximum altitude 20:11:53 19° 269° (W) 1,223 9.6 -15.5°
Drops below altitude 10° 20:14:29 10° 316° (NW) 1,661 10.1 -15.8°
Sets 20:17:00 0° 335° (NNW) 2,535 10.8 -16.2°
